CAPE
57 0 0 0 30 27 15 49 277 30 33 50 32 68 92 68 64 0 69 103 192 765 1021 1281 1332 1449 1358 1735 1424 1374 1284 1311 1879 2028 2193 2311 2324 2474 2393 2387 2287 2329 2231 2064 1789 1721 1721 1374 871
0 0 0 32 19 13 25 203 4 32 27 31 23 44 65 43 14 106 87 37 274 692 1092 1114 1028 1181 1890 1806 1667 1902 1335 1427 1308 1666 1909 2260 2396 2351 2317 2367 2264 2280 2263 2075 1676 1602 1401 998 963
0 0 8 48 25 22 28 138 7 24 53 31 23 15 60 82 84 82 88 98 487 651 650 713 895 1393 1819 1589 1719 1751 1591 1791 1878 1344 2027 2064 2089 2168 2190 2201 2346 2379 2330 2035 1654 1709 1490 1386 1091
32 2 0 102 89 0 51 252 37 0 0 21 22 27 58 88 70 100 129 191 163 177 855 1279 1070 1390 1736 1425 1903 1683 1664 1479 1938 1942 1660 1943 2055 2168 2157 2129 2160 2172 2147 1807 1602 1666 1502 1254 808
114 51 55 47 39 18 129 349 7 6 0 0 0 0 5 8 46 76 79 100 21 539 991 1203 1334 1240 1477 1409 1645 1679 1654 1701 1615 1757 1642 1838 1948 1986 2111 2086 2010 2060 2062 1709 1514 1421 1484 1101 949
109 11 32 36 2 51 267 206 1 2 0 0 0 0 0 0 0 0 27 2 64 261 908 1408 1443 1310 1583 1281 1406 1467 1722 1667 1589 1649 1565 1699 1779 1913 2063 2017 2061 2097 2236 1822 1593 1408 946 954 856
65 48 33 53 54 94 118 98 13 0 0 0 0 0 0 0 0 0 44 66 152 584 798 1125 1348 1258 1502 1325 1662 1628 1546 1574 1561 1521 1595 1604 1687 2004 1972 1954 2095 2130 2169 1861 1514 1092 784 889 956
144 0 32 26 54 95 146 52 30 2 0 0 0 0 0 0 13 13 0 77 196 624 693 1010 1144 1092 1314 1311 1393 1437 1382 1528 1556 1583 1576 1665 1667 1812 1964 1910 2200 2087 2019 1738 1469 1089 678 991 999
158 26 46 26 62 125 121 17 48 29 3 0 0 0 0 0 4 0 0 0 106 546 672 961 835 746 1237 1128 1371 1359 1401 1398 1518 1488 1552 1365 1295 1441 1401 1961 2079 1940 1852 1673 1386 1403 1066 1053 1118
27 0 7 36 49 46 143 64 5 3 11 66 3 0 3 80 0 0 6 0 0 64 456 464 346 689 976 1215 1114 1057 1268 950 636 770 1026 926 1037 1042 1332 1822 1896 1811 1554 1338 1056 625 609 844 878
2 0 1 40 106 243 61 36 4 2 1 5 0 0 41 19 18 38 75 39 74 164 508 529 613 754 576 802 651 687 687 692 647 634 829 875 752 1173 1365 1526 1168 1285 1095 775 690 904 1187 1365 1247
0 5 0 21 169 91 67 3 0 0 1 6 2 0 2 47 77 98 96 110 187 253 497 515 509 588 609 719 535 652 739 729 655 594 706 797 458 610 805 781 701 656 527 184 210 465 804 876 662
0 28 20 99 85 12 18 81 164 3 61 21 23 6 23 56 89 38 40 161 195 255 422 366 358 630 565 636 764 683 766 688 639 860 711 397 89 146 493 756 862 518 7 11 146 248 614 318 239
10 70 47 88 112 47 102 65 31 9 81 7 10 2 25 53 78 67 54 160 224 319 361 191 54 497 511 394 547 562 664 699 678 805 732 444 132 232 503 662 715 469 509 710 796 581 477 209 155
0 0 58 124 262 185 44 18 3 18 48 5 3 2 13 45 83 105 40 145 307 277 238 197 321 338 312 339 584 608 630 580 633 770 659 413 421 611 776 670 472 598 798 920 1147 1103 722 335 37
0 4 6 188 231 266 124 1 12 1 64 41 2 0 26 52 102 62 62 101 314 263 229 397 448 365 339 656 433 595 560 470 508 698 878 689 563 493 752 522 360 431 883 788 1109 1094 756 269 128
0 0 5 265 370 265 88 0 7 37 58 56 21 0 13 47 67 61 117 201 277 326 276 445 360 209 340 816 590 473 313 103 287 561 724 858 614 446 851 878 688 690 592 831 714 566 495 728 317
0 0 0 15 124 101 48 0 6 51 56 95 25 0 5 26 33 39 151 271 301 155 169 320 420 251 502 766 628 297 90 0 3 522 855 968 940 988 930 976 752 1009 748 893 674 632 690 846 500
0 0 6 241 139 65 10 0 0 1 108 129 3 0 5 29 33 24 194 303 222 107 0 33 195 135 241 563 598 448 88 79 0 258 776 983 994 1088 922 1155 682 1214 865 700 1031 928 871 289 449
0 0 8 119 58 61 71 116 145 89 162 118 0 0 2 19 34 23 74 155 4 81 176 158 211 140 80 524 675 755 666 409 314 491 695 852 1019 725 911 811 677 907 825 568 768 974 573 677 519
0 0 0 21 16 3 88 17 96 113 134 18 2 0 3 4 16 28 42 81 0 31 227 279 310 102 53 485 660 655 582 571 517 572 686 851 978 939 1002 926 813 1128 907 837 784 1070 944 722 687
0 0 0 52 80 43 86 1 0 3 39 65 61 5 0 1 15 30 60 86 88 76 242 284 303 171 172 272 443 526 414 272 445 420 615 906 1075 1085 855 753 961 866 937 814 852 1070 801 624 550
0 0 0 24 81 112 28 0 0 0 79 166 172 16 1 1 6 20 52 82 113 175 228 295 282 237 345 550 591 392 272 145 625 588 701 1042 1145 1009 1032 858 988 784 761 627 755 1092 790 1048 841
0 0 83 64 38 6 0 0 2 0 47 206 248 47 51 33 7 1 10 101 131 206 348 267 269 234 255 778 1030 516 219 112 380 833 781 973 938 1033 1294 984 905 796 606 550 565 1198 1045 1162 1070
0 0 0 5 14 0 0 0 3 24 159 313 336 210 124 119 54 2 1 110 174 181 299 388 310 225 228 457 842 688 335 349 548 651 642 799 998 912 1071 1158 1061 786 756 747 721 1146 1177 797 918
0 0 0 0 0 1 7 0 16 31 169 284 214 271 239 215 217 35 0 69 133 137 218 409 377 256 309 365 804 856 597 289 388 668 524 350 489 662 1136 1221 1232 1032 972 804 1210 1024 1053 872 860
0 0 0 0 0 0 78 49 99 81 2 130 46 187 179 249 165 48 3 28 146 188 313 294 406 299 320 334 844 773 728 445 436 506 339 267 568 707 936 995 1258 1324 1017 1072 1054 951 781 873 847
0 0 0 0 0 0 66 82 44 38 233 174 19 10 161 71 98 193 144 103 137 114 207 347 532 481 469 469 802 789 927 731 470 385 360 614 824 1038 1014 660 483 916 1211 1157 1041 765 662 805 769
0 0 0 0 0 5 49 60 282 198 337 239 275 210 147 75 38 34 104 156 109 100 91 132 217 617 572 578 837 995 815 1149 1068 562 834 528 1046 952 953 730 462 622 1113 1130 1056 883 669 696 728
0 0 0 0 0 52 73 93 191 113 145 188 172 181 54 76 73 21 0 40 240 24 12 0 14 214 390 552 574 743 690 792 737 684 1282 1146 824 713 712 587 569 524 976 1062 959 820 816 893 882
CIN
-58 -0 -0 -0 -5 -6 -15 -22 -29 -19 -10 -30 -71 -99 -62 -59 -49 -0 -132 -77 -60 -6 -1 -0 -0 -0 -3 -0 -5 -1 -3 -4 -0 -0 -0 -0 -0 -0 -0 -0 -0 -0 -0 -0 -0 -0 -0 -1 -7
-0 -0 -0 -33 -2 -7 -8 -9 -65 -49 -84 -78 -68 -83 -92 -147 -211 -172 -138 -82 -69 -23 -1 -3 -12 -8 -0 -0 -0 -0 -12 -11 -18 -0 -0 -0 -0 -0 -0 -0 -0 -0 -0 -0 -0 -0 -0 -6 -5
-0 -0 -26 -20 -1 -22 -14 -11 -59 -74 -71 -58 -138 -143 -189 -181 -144 -159 -158 -89 -41 -31 -34 -31 -19 -1 -0 -0 -0 -0 -0 -0 -0 -4 -0 -0 -0 -0 -0 -0 -0 -0 -0 -0 -0 -0 -3 -2 -5
-42 -0 -0 -4 -1 -0 -18 -8 -42 -2 -3 -138 -199 -193 -137 -109 -170 -185 -119 -70 -90 -88 -20 -0 -10 -0 -0 -0 -0 -0 -0 -0 -0 -0 -0 -0 -0 -0 -0 -0 -0 -0 -0 -2 -4 -3 -6 -9 -22
-29 -7 -0 -25 -10 -27 -30 -26 -56 -35 -0 -0 -0 -0 -41 -49 -145 -155 -109 -95 -148 -43 -6 -0 -0 -0 -0 -0 -0 -0 -0 -0 -0 -0 -0 -0 -0 -0 -0 -0 -0 -1 -3 -13 -11 -14 -8 -8 -12
-5 -15 -2 -5 -25 -28 -14 -10 -34 -47 -0 -0 -0 -0 -0 -0 -0 -0 -83 -3 -119 -94 -11 -0 -0 -0 -0 -0 -0 -0 -0 -0 -0 -0 -0 -0 -0 -0 -0 -0 -3 -3 -1 -16 -22 -18 -12 -8 -24
-13 -0 -6 -3 -15 -15 -8 -33 -67 -0 -0 -0 -0 -0 -0 -0 -0 -0 -114 -122 -93 -64 -37 -1 -0 -0 -0 -0 -0 -0 -0 -0 -0 -0 -0 -0 -0 -0 -0 -2 -2 -5 -4 -18 -25 -32 -27 -37 -34
-1 -3 -8 -52 -20 -4 -1 -49 -43 -40 -0 -0 -0 -0 -0 -0 -100 -117 -0 -103 -89 -52 -49 -16 -2 -2 -1 -0 -0 -0 -0 -0 -0 -0 -0 -0 -0 -0 -0 -9 -0 -2 -11 -24 -30 -35 -49 -39 -34
-18 -22 -10 -10 -13 -9 -30 -87 -96 -133 -26 -0 -0 -0 -0 -0 -61 -0 -0 -0 -78 -28 -37 -27 -25 -27 -2 -2 -0 -0 -0 -0 -2 -1 -0 -2 -4 -7 -20 -5 -4 -12 -24 -39 -46 -31 -42 -42 -30
-68 -0 -21 -46 -45 -8 -41 -74 -71 -51 -15 -25 -27 -0 -50 -117 -0 -0 -87 -0 -0 -89 -55 -67 -79 -36 -15 -1 -4 -9 -8 -18 -35 -31 -13 -21 -26 -33 -26 -8 -15 -21 -43 -53 -64 -52 -46 -49 -47
-39 -0 -48 -93 -72 -11 -47 -56 -86 -109 -44 -70 -0 -0 -70 -98 -62 -125 -105 -92 -96 -89 -57 -58 -51 -37 -38 -19 -23 -36 -41 -38 -33 -34 -28 -33 -46 -25 -29 -24 -57 -58 -68 -79 -70 -69 -54 -39 -33
-0 -106 -0 -103 -55 -46 -74 -59 -0 -0 -6 -86 -23 -0 -7 -74 -96 -75 -80 -68 -78 -80 -55 -52 -62 -51 -34 -33 -39 -42 -40 -39 -30 -40 -44 -47 -69 -56 -61 -69 -73 -80 -93 -108 -113 -103 -75 -58 -67
-0 -111 -101 -82 -108 -88 -64 -40 -48 -47 -102 -39 -8 -19 -18 -35 -61 -67 -95 -79 -104 -77 -54 -59 -70 -52 -40 -43 -34 -42 -35 -41 -29 -32 -42 -59 -133 -108 -73 -63 -59 -78 -96 -51 -116 -88 -62 -78 -106
-113 -86 -95 -136 -87 -55 -27 -50 -35 -33 -60 -33 -16 -23 -24 -30 -55 -56 -75 -92 -71 -65 -50 -72 -89 -58 -59 -54 -48 -35 -38 -29 -34 -29 -34 -50 -123 -85 -54 -59 -53 -63 -77 -74 -58 -50 -57 -94 -102
-0 -0 -68 -114 -66 -24 -72 -51 -24 -26 -40 -32 -22 -11 -30 -24 -55 -59 -82 -88 -64 -65 -64 -58 -59 -67 -51 -47 -43 -32 -32 -35 -28 -27 -34 -37 -50 -41 -41 -49 -52 -59 -57 -45 -37 -36 -40 -52 -137
-0 -12 -21 -71 -44 -47 -28 -12 -89 -23 -50 -31 -12 -0 -11 -29 -67 -57 -75 -96 -73 -71 -63 -52 -46 -61 -46 -35 -37 -33 -37 -37 -41 -34 -31 -39 -38 -38 -32 -46 -50 -52 -44 -40 -34 -31 -33 -56 -81
-0 -0 -26 -21 -45 -84 -54 -0 -157 -72 -53 -22 -22 -0 -9 -34 -52 -74 -92 -98 -89 -76 -68 -42 -47 -58 -37 -22 -29 -42 -58 -73 -58 -41 -19 -26 -36 -37 -22 -35 -37 -45 -41 -33 -35 -39 -41 -40 -55
-0 -0 -0 -31 -129 -24 -91 -0 -207 -128 -80 -32 -27 -0 -15 -34 -49 -81 -82 -84 -78 -76 -73 -44 -33 -39 -28 -23 -43 -69 -85 -0 -12 -57 -29 -22 -25 -27 -23 -30 -37 -31 -37 -32 -35 -27 -43 -45 -41
-0 -0 -46 -54 -64 -38 -70 -0 -0 -42 -53 -29 -113 -0 -8 -26 -53 -68 -73 -70 -63 -73 -0 -68 -41 -43 -47 -26 -28 -48 -63 -94 -0 -76 -45 -27 -22 -22 -30 -23 -33 -28 -34 -34 -32 -38 -31 -64 -67
-0 -0 -19 -118 -67 -70 -50 -16 -30 -48 -42 -42 -0 -0 -11 -33 -44 -52 -67 -67 -54 -81 -61 -61 -39 -48 -72 -30 -37 -44 -47 -79 -87 -69 -46 -32 -26 -33 -27 -27 -25 -30 -31 -38 -34 -30 -33 -38 -67
-0 -0 -0 -34 -144 -8 -45 -61 -41 -34 -33 -13 -9 -0 -19 -32 -44 -58 -59 -61 -0 -31 -59 -67 -54 -45 -80 -33 -39 -51 -53 -63 -55 -58 -46 -31 -24 -22 -18 -27 -34 -29 -36 -33 -35 -33 -27 -30 -54
-0 -0 -0 -59 -75 -36 -79 -11 -0 -17 -20 -13 -9 -12 -11 -7 -52 -61 -74 -67 -68 -77 -60 -65 -53 -38 -68 -67 -34 -36 -37 -38 -60 -63 -43 -34 -24 -19 -24 -30 -25 -39 -39 -32 -29 -43 -38 -54 -35
-0 -0 -0 -95 -83 -63 -107 -4 -0 -0 -28 -10 -8 -14 -16 -46 -67 -94 -102 -89 -82 -88 -79 -68 -62 -45 -64 -41 -40 -41 -59 -103 -48 -59 -41 -20 -25 -19 -21 -29 -34 -39 -48 -53 -39 -34 -47 -52 -55
-0 -0 -60 -109 -112 -16 -0 -0 -84 -0 -95 -54 -20 -34 -28 -37 -62 -24 -101 -81 -82 -89 -82 -81 -77 -62 -56 -31 -28 -44 -76 -131 -64 -32 -39 -27 -19 -18 -16 -19 -24 -32 -42 -47 -48 -38 -48 -43 -48
-0 -0 -0 -9 -14 -0 -0 -0 -40 -163 -125 -103 -104 -50 -35 -75 -43 -43 -89 -73 -88 -89 -86 -100 -84 -81 -74 -50 -32 -40 -66 -85 -58 -52 -49 -41 -30 -23 -20 -15 -21 -39 -44 -40 -39 -38 -47 -44 -41
-0 -0 -0 -0 -0 -41 -31 -0 -86 -118 -147 -116 -113 -73 -73 -78 -91 -68 -0 -86 -89 -99 -107 -105 -96 -75 -85 -69 -35 -43 -55 -100 -101 -60 -61 -82 -67 -52 -23 -23 -22 -26 -35 -36 -32 -39 -53 -57 -56
-0 -0 -0 -0 -0 -0 -42 -99 -189 -213 -81 -156 -197 -120 -88 -96 -151 -136 -53 -117 -124 -128 -114 -104 -103 -91 -90 -84 -39 -41 -49 -88 -75 -79 -101 -109 -91 -59 -45 -39 -36 -42 -31 -25 -35 -36 -45 -54 -61
-0 -0 -0 -0 -0 -0 -47 -83 -126 -170 -109 -142 -202 -145 -134 -221 -138 -134 -127 -170 -184 -180 -144 -98 -79 -80 -83 -85 -56 -50 -54 -60 -66 -79 -88 -68 -67 -46 -51 -57 -81 -61 -44 -24 -25 -38 -48 -46 -58
-0 -0 -0 -0 -0 -5 -31 -58 -43 -24 -37 -95 -94 -145 -172 -235 -219 -216 -98 -129 -161 -153 -158 -165 -122 -71 -60 -61 -52 -51 -71 -59 -41 -57 -36 -71 -46 -57 -52 -65 -87 -70 -48 -45 -41 -44 -52 -50 -50
-0 -0 -0 -0 -0 -81 -93 -46 -15 -109 -88 -91 -139 -173 -230 -209 -203 -212 -0 -189 -109 -154 -145 -0 -165 -92 -111 -73 -47 -46 -39 -74 -74 -57 -31 -37 -59 -65 -53 -69 -73 -75 -45 -47 -56 -57 -51 -42 -45
Wind_Speed
16 14 14 14 14 14 28 28 15 28 28 28 32 27 26 25 23 22 35 32 34 34 33 33 32 30 29 26 24 22 20 20 20 22 24 25 28 28 28 25 26 26 25 26 27 23 17 17 19
14 14 14 15 17 25 27 20 24 25 33 29 24 23 5 23 21 35 34 33 34 35 34 33 32 30 28 27 26 24 22 22 21 22 22 24 26 26 27 25 25 27 27 26 27 24 18 14 30
12 14 14 15 19 19 29 24 27 30 31 29 26 4 18 23 28 35 34 33 34 35 34 33 31 29 28 27 26 25 24 23 23 23 26 26 26 25 24 24 25 26 26 25 24 22 27 22 19
13 12 13 15 21 21 23 20 19 23 9 16 21 15 6 22 32 33 34 33 33 34 33 32 30 29 28 27 27 27 27 26 26 27 26 26 26 24 23 25 25 25 26 16 23 20 32 11 23
16 12 7 18 18 21 21 16 25 20 4 20 20 26 25 16 29 33 34 33 33 33 32 31 30 29 28 27 27 27 28 28 28 28 27 25 25 25 24 26 27 30 31 25 26 31 31 20 26
16 14 14 8 14 22 9 12 18 16 19 20 22 26 27 27 33 32 33 33 31 31 31 30 29 28 28 28 27 28 28 28 29 27 26 26 27 27 27 25 29 31 31 31 28 29 13 6 22
13 15 17 17 22 22 8 5 4 15 23 22 26 27 29 31 33 33 33 32 31 30 29 29 29 28 27 27 27 28 28 28 28 28 27 27 28 27 26 26 30 27 28 29 29 21 29 26 26
16 16 14 19 26 20 4 4 2 5 7 22 26 29 33 36 32 31 31 31 30 30 29 28 28 27 27 27 27 28 28 28 27 26 28 29 29 28 28 27 26 25 27 24 1 16 29 25 22
18 11 13 15 27 3 10 4 17 7 12 23 14 31 33 35 30 30 31 32 30 29 29 29 28 28 27 27 27 28 27 28 28 27 29 30 30 30 31 25 26 27 28 27 14 17 22 22 22
13 17 17 15 17 10 7 7 7 6 1 14 20 25 31 30 32 32 33 32 30 30 30 28 29 28 28 27 28 28 28 28 28 29 29 31 31 31 31 23 29 27 28 26 23 21 22 22 22
9 15 12 16 19 17 1 9 3 17 19 28 32 31 30 32 32 31 31 31 31 32 30 29 29 28 28 28 28 29 28 28 28 28 28 29 30 31 30 30 29 24 25 21 20 20 19 19 20
11 15 12 14 12 4 7 5 7 3 30 35 31 33 28 33 32 30 30 30 30 31 29 29 29 28 27 29 28 28 28 27 28 28 28 29 30 30 30 30 27 23 20 19 19 17 15 15 17
22 9 15 12 13 8 10 8 8 29 23 34 33 28 29 32 31 29 28 29 30 30 29 29 28 27 28 28 28 27 26 27 28 27 28 29 31 30 29 26 25 22 22 22 21 17 16 17 14
18 19 8 17 20 24 7 5 13 11 7 29 36 30 31 30 27 26 25 28 29 29 28 27 28 27 28 28 27 26 26 26 26 27 28 28 29 28 26 25 25 24 23 22 19 19 17 19 15
26 20 8 11 14 6 8 10 11 15 25 30 35 31 32 28 25 27 27 27 28 28 27 27 28 27 27 26 26 25 26 26 25 26 26 27 27 26 25 28 26 25 25 20 21 18 15 17 18
20 18 13 7 13 9 9 11 9 30 30 33 36 31 34 27 25 25 25 26 28 28 26 26 28 28 28 27 27 25 27 26 26 26 26 27 27 28 26 27 26 24 22 24 20 17 17 21 19
16 18 14 9 15 7 12 9 27 36 36 36 38 33 34 25 24 23 22 27 26 27 26 27 28 28 27 27 27 26 26 24 24 25 25 26 26 28 24 25 24 24 23 23 21 20 20 20 22
17 18 20 20 13 11 5 5 17 25 37 37 36 32 22 24 26 27 22 24 25 25 27 24 27 27 26 26 26 26 25 24 24 24 24 25 25 25 24 23 24 24 22 24 22 21 19 19 22
23 20 19 16 11 7 10 6 19 23 32 37 28 27 16 21 23 24 22 22 24 22 24 25 26 26 27 26 25 25 25 24 24 24 24 25 25 25 24 24 25 23 21 23 21 19 18 20 18
26 23 18 12 10 10 6 5 15 25 32 37 26 26 16 18 21 21 20 21 20 22 21 23 24 25 26 25 26 24 25 23 24 24 24 24 25 26 26 26 26 24 24 24 22 18 19 18 17
30 26 20 20 15 17 19 17 11 13 10 21 24 20 19 18 20 19 18 20 18 14 18 21 23 22 22 27 23 24 24 23 24 24 23 24 24 25 26 26 26 24 23 24 23 19 18 18 18
33 26 20 18 22 24 21 22 25 17 31 21 23 17 18 15 18 19 17 17 18 13 14 18 20 21 19 20 24 22 24 23 23 24 23 24 24 25 26 25 25 26 25 25 24 21 19 19 17
32 25 23 19 24 15 20 20 18 14 20 21 36 21 12 20 12 17 15 17 15 13 12 16 18 21 17 18 27 25 25 24 24 24 24 24 25 24 24 25 26 26 25 25 26 23 22 18 17
29 20 15 15 19 26 25 23 21 4 9 35 36 25 20 11 11 11 11 14 13 11 10 13 16 21 20 21 22 27 23 24 24 24 24 24 24 24 24 24 24 25 25 26 27 25 24 20 18
22 18 23 25 28 30 19 25 26 4 13 27 9 17 12 9 11 10 10 13 11 11 10 9 12 18 24 23 18 25 24 26 25 23 25 24 24 24 24 24 23 24 25 27 27 26 26 23 22
21 20 24 28 25 23 15 27 25 16 16 5 4 6 5 14 16 18 15 12 11 12 8 7 9 10 15 24 25 18 14 28 26 24 25 24 24 25 25 25 24 23 24 25 26 27 26 24 24
24 25 22 24 23 23 20 21 16 10 13 7 7 6 8 11 7 15 14 7 10 13 16 9 5 7 7 18 33 12 13 30 29 27 26 26 25 25 24 23 23 24 25 25 26 26 27 27 26
25 19 24 23 27 27 23 20 23 19 16 16 15 11 7 4 4 2 10 5 7 9 14 19 21 20 23 27 28 35 26 32 32 27 29 28 26 24 24 23 23 23 25 26 26 26 26 26 27
23 22 20 20 21 24 26 24 20 11 10 11 13 9 9 5 4 3 2 4 4 9 15 18 21 24 21 23 29 34 36 35 33 31 30 30 29 24 20 23 23 23 25 26 26 26 26 26 26
19 21 21 24 25 19 21 23 10 4 6 6 6 5 7 9 10 9 9 9 15 15 19 35 29 23 19 22 25 30 28 35 36 35 33 27 31 31 23 19 23 24 25 25 25 26 26 26 25
Wind_Direction
87 65 52 39 57 191 156 135 183 119 141 139 128 124 134 128 136 129 123 123 119 126 125 128 123 119 112 99 89 79 72 70 68 70 77 78 88 86 81 68 69 68 66 66 69 63 57 57 59
75 58 274 126 88 180 127 137 98 88 110 95 86 105 232 148 80 116 119 118 120 124 126 128 127 122 117 105 102 90 81 80 77 78 80 81 86 86 83 72 71 74 76 70 74 66 57 54 82
76 115 116 110 112 97 148 106 94 102 129 121 115 306 175 106 97 123 119 117 118 123 124 124 124 122 113 107 108 101 91 85 82 83 94 91 89 86 77 76 74 76 75 74 71 65 75 140 148
81 50 332 132 123 116 132 123 84 87 44 63 81 43 36 88 134 117 115 115 116 121 125 121 120 120 111 110 113 105 109 100 97 100 98 98 90 82 77 86 80 75 77 58 72 65 107 164 141
285 32 43 153 128 122 139 223 117 91 73 77 80 99 96 77 101 110 114 116 115 117 121 121 122 117 114 110 110 109 118 126 118 110 98 89 90 87 85 90 92 113 114 150 149 124 116 56 68
318 352 347 79 91 205 41 54 93 73 77 78 80 96 111 105 112 114 114 117 114 115 119 122 118 116 115 110 108 113 113 120 110 102 93 95 100 99 95 90 110 126 112 112 142 139 52 54 130
258 183 233 140 134 214 39 241 40 80 88 87 96 96 108 116 118 118 115 113 115 114 115 119 121 117 114 114 110 109 108 104 107 107 100 99 106 98 92 94 111 96 102 108 106 161 131 137 135
295 260 279 193 153 222 14 199 4 222 45 91 94 123 126 131 119 114 112 115 116 118 118 118 119 119 117 116 112 110 108 107 97 94 103 109 109 99 101 96 94 90 96 89 336 176 133 145 146
329 310 262 214 168 331 87 81 208 283 96 110 219 120 122 125 117 114 114 118 121 125 126 124 120 123 122 117 116 110 108 110 108 99 107 118 114 111 120 96 95 97 100 105 182 177 164 156 149
312 356 196 223 229 229 74 98 115 224 249 216 95 106 119 122 123 122 125 125 127 128 132 126 127 126 126 123 119 120 117 116 121 118 113 121 128 119 119 84 109 146 138 146 156 164 161 156 151
328 351 249 225 218 144 117 100 100 103 182 173 129 123 123 127 129 127 129 128 129 131 128 131 127 127 128 125 125 125 121 122 124 130 134 133 132 129 118 123 137 161 154 165 165 169 171 171 165
317 152 207 184 263 328 89 102 109 65 203 159 136 132 125 131 134 130 128 129 129 135 131 132 129 127 136 123 125 130 131 133 127 125 129 132 135 125 123 122 139 167 175 174 172 175 183 173 172
259 318 212 224 211 36 86 80 85 193 168 178 139 130 130 137 139 133 124 128 130 131 133 134 131 131 139 135 134 134 136 137 131 134 139 132 133 130 131 139 139 175 175 171 169 174 178 165 170
277 271 312 109 168 112 68 315 256 130 215 147 147 141 142 139 135 128 122 126 132 128 132 130 137 133 139 139 139 142 142 142 138 133 136 140 140 139 149 158 162 168 171 173 173 169 174 175 180
260 273 303 107 91 60 49 263 270 227 210 153 149 147 147 140 134 136 130 127 130 130 127 129 138 142 142 142 149 148 151 142 132 134 144 144 148 144 156 152 157 166 169 177 175 177 182 173 180
279 266 265 299 114 84 303 330 311 206 198 195 152 147 160 139 138 136 131 128 132 128 129 132 139 134 139 141 134 125 128 127 125 130 138 136 147 142 148 146 160 171 178 172 177 182 180 172 176
274 255 264 272 144 108 285 38 122 185 193 192 169 155 162 136 136 133 131 134 131 132 129 133 134 132 138 145 141 132 132 120 129 139 146 141 149 154 171 169 169 175 176 180 180 178 176 179 177
254 256 254 256 277 263 301 346 113 145 170 171 169 156 151 139 140 138 131 131 132 131 136 129 135 142 136 137 140 139 150 143 144 144 157 157 169 178 178 179 177 178 178 173 176 176 184 189 179
254 264 260 257 280 301 298 92 134 141 157 173 155 154 142 141 137 134 132 132 133 129 133 132 137 141 139 147 161 153 152 152 150 144 150 157 167 176 182 181 179 187 186 178 182 186 193 188 197
251 260 262 273 279 310 288 42 132 154 166 177 153 155 148 142 142 136 131 134 133 134 132 135 139 138 145 148 166 163 152 154 144 146 148 151 158 166 179 179 182 191 186 186 192 198 194 198 202
249 255 258 264 267 282 269 280 278 256 175 160 156 154 154 151 147 143 138 138 133 125 130 136 140 138 133 160 157 156 173 161 151 150 159 158 147 155 162 172 185 192 195 186 192 206 206 205 206
246 258 266 256 252 261 263 263 252 257 214 158 161 160 160 163 153 151 145 141 139 130 128 137 139 140 134 131 153 134 155 157 167 158 162 161 156 149 160 180 187 183 189 190 196 207 208 205 214
241 265 268 254 252 260 260 273 268 250 246 166 184 161 170 164 170 158 155 148 141 134 134 139 141 148 136 135 184 167 169 169 165 170 162 166 163 159 155 168 169 178 190 200 196 209 205 217 217
243 267 268 256 258 253 258 256 258 223 209 177 186 167 156 184 185 196 171 155 149 142 137 140 145 153 149 149 192 182 157 165 162 172 166 165 167 173 163 163 173 183 194 187 192 207 202 217 222
246 252 244 246 250 253 258 249 252 268 235 165 202 161 175 236 240 209 195 169 158 151 147 145 145 155 161 159 147 167 168 176 173 162 157 165 165 176 173 166 172 179 190 190 191 198 204 216 215
246 246 246 245 248 260 254 250 255 261 247 224 191 180 201 244 253 250 243 227 176 163 164 159 153 160 155 163 167 150 261 204 179 161 170 171 174 174 173 172 177 182 184 185 191 200 205 219 216
243 248 258 258 266 262 258 265 278 256 252 234 253 242 152 242 252 251 247 219 238 254 256 246 180 178 210 161 193 264 263 209 190 189 179 181 178 182 168 165 168 187 193 190 191 201 209 212 219
245 257 249 255 253 252 258 258 258 255 253 256 256 257 245 210 270 282 259 229 234 260 271 263 257 255 249 242 238 200 177 195 215 225 203 198 192 180 171 171 181 179 187 195 195 201 205 211 216
240 245 252 257 262 259 247 259 278 256 264 261 264 258 239 226 303 336 299 233 247 278 283 274 266 254 258 254 243 230 208 214 216 221 223 208 204 176 164 175 175 181 187 189 191 199 209 210 217
249 247 250 249 251 264 259 258 275 265 271 279 282 271 240 260 290 294 285 288 273 274 282 253 256 258 258 260 254 247 250 229 217 221 226 243 209 214 177 163 181 184 184 189 188 199 213 221 229